Airfield :
LOGIN :

Register | Disclaimer

   EN    FR    IT 

 










Legend :    VFR   Marginal VFR   IFR   Intensive IFR   Very Intensive IFR
Visi :
Ceiling :
>= 8 km
>= 3000ft
5 to 8 km
1000 to 3000 ft
1500m to 5 km
500 to 1000 ft
800 to 1500m
200 to 500 ft
< 800m
< 200 ft
Symbols :   Thunderstorms  Fog  Heavy snow  Heavy precipitations  Wind > 20 kt
SIGMETs :     Misc.  Thunderstorms  Icing  Turbulence  Mountain Waves  Volcanic Ashes







- Airport Elevation : 2077 ft
- IATA code : FMM


EDJA - Memmingen

CURRENT METAR :
  • 150520Z 11004KT 070V180 9999 BKN019 M04/M08 Q1022

EXPIRED METARs :
  • 150450Z 10004KT 070V150 9999 BKN020 M04/M07 Q1022
  • 150420Z VRB03KT 9999 BKN020 M04/M08 Q1022

TAF TAF EDJA
Valid from the 15 at 06:00 until the 15 at 15:00 UTC


150500Z 1506/1515 07004KT 9999 BKN020
PROB30
TEMPO 1506/1508 4000 -SN BKN012
No reported NOTAMs for that airfield.



MET'MAP, your aeronautical weather chart ! - Copyright ORBIFLY December 2007 - Disclaimer

ORBIFLY MET'MAP TEAM :

Programming & Development : Alexandra Zaïnal
Concept & Development : Baudouin d'Aumeries
Co-Development & Prog : Marc-Olivier Méhu
Technical & hardware support : Manuel Goepfert

Contact : metmap@orbifly.com




SOURCES & CREDITS :

   NOAA